Simultaneous Nadir Overpasses (SNOs) Predictions

Prediction of SNOs between METOP-C and LANDSAT-8 Satellite Orbit:

Table of predicted SNOs for the next 14.0 days since TLE Epoch: 11/8/2025
Index Date (METOP-C) Time (METOP-C) Lat,Lon (METOP-C) SZA (METOP-C ) Date (LANDSAT-8) Time (LANDSAT-8) Lat,Lon (LANDSAT-8) SZA (LANDSAT-8 ) Distance(km) Time Diff (sec)
1 11/10/2025 17:49:35 81.13, -47.26 100.87 11/10/2025 17:49:42 81.13, -47.43 100.85 2.88 7
2 11/10/2025 18:40:15 -81.15, 120.44 79.08 11/10/2025 18:39:08 -81.15, 120.53 79.10 1.51 67
3 11/13/2025 12:33:19 -81.10,-149.07 78.51 11/13/2025 12:34:30 -81.11,-148.91 78.46 2.94 71
4 11/13/2025 13:23:57 81.13, 19.19 101.62 11/13/2025 13:23:55 81.14, 19.14 101.61 0.90 2
5 11/13/2025 14:13:41 -81.23,-151.25 75.62 11/13/2025 14:12:28 -81.83,-151.46 75.42 66.38 73
6 11/16/2025 08:07:41 -81.10, -82.67 77.81 11/16/2025 08:08:43 -81.10, -82.56 77.77 1.98 62
7 11/16/2025 08:58:19 81.13, 85.54 102.31 11/16/2025 08:58:08 81.13, 85.46 102.30 1.51 11
8 11/19/2025 03:42:01 -81.11, -16.00 77.12 11/19/2025 03:42:54 -81.11, -16.08 77.11 1.67 53
9 11/19/2025 04:32:40 81.13, 151.80 102.95 11/19/2025 04:32:19 81.13, 151.91 102.95 1.87 21
10 11/21/2025 23:16:22 -81.12, 50.58 76.49 11/21/2025 23:17:05 -81.11, 50.51 76.49 1.27 43



Historial Predications of SNOs between METOP-C and LANDSAT-8
